QPF
0.00 0.00 0.00 0.00 0.00 0.00 0.00 0.00 0.00 0.00 0.00 0.00 0.00 0.00 0.00 0.00 0.00 0.00 0.00 0.00 0.00 0.00 0.00 0.00 0.05 0.07 0.00 0.00 0.00 0.00 0.00 0.00 0.00 0.00 0.00 0.01 0.01 0.00 0.00 0.00 0.00 0.00 0.00 0.00 0.00 0.00 0.00 0.00 0.00
0.00 0.00 0.00 0.00 0.00 0.00 0.00 0.00 0.00 0.00 0.00 0.00 0.00 0.00 0.00 0.00 0.00 0.00 0.00 0.00 0.00 0.00 0.00 0.00 0.00 0.01 0.00 0.00 0.00 0.00 0.00 0.00 0.00 0.00 0.00 0.01 0.01 0.00 0.00 0.00 0.00 0.00 0.00 0.00 0.00 0.00 0.00 0.00 0.00
0.00 0.00 0.00 0.00 0.00 0.00 0.00 0.00 0.00 0.00 0.00 0.00 0.00 0.00 0.00 0.00 0.00 0.00 0.00 0.00 0.00 0.00 0.00 0.00 0.02 0.04 0.00 0.00 0.00 0.00 0.00 0.00 0.00 0.00 0.00 0.01 0.00 0.00 0.00 0.00 0.00 0.00 0.00 0.00 0.00 0.00 0.00 0.00 0.00
0.00 0.00 0.00 0.00 0.00 0.00 0.00 0.00 0.00 0.00 0.00 0.00 0.00 0.00 0.00 0.00 0.00 0.00 0.00 0.00 0.00 0.00 0.00 0.00 0.00 0.01 0.00 0.00 0.00 0.00 0.00 0.00 0.00 0.00 0.00 0.00 0.00 0.00 0.00 0.00 0.00 0.00 0.00 0.00 0.00 0.00 0.00 0.00 0.00
0.00 0.00 0.00 0.00 0.00 0.00 0.00 0.00 0.00 0.00 0.00 0.00 0.00 0.00 0.00 0.00 0.00 0.00 0.00 0.00 0.00 0.00 0.00 0.00 0.00 0.00 0.00 0.00 0.00 0.00 0.00 0.00 0.00 0.00 0.00 0.00 0.00 0.00 0.00 0.00 0.00 0.00 0.00 0.00 0.00 0.01 0.01 0.00 0.00
0.00 0.00 0.00 0.00 0.00 0.00 0.00 0.00 0.00 0.00 0.00 0.00 0.00 0.00 0.00 0.00 0.00 0.00 0.00 0.00 0.00 0.00 0.00 0.00 0.00 0.00 0.00 0.00 0.00 0.00 0.00 0.00 0.00 0.00 0.00 0.00 0.00 0.00 0.00 0.00 0.00 0.00 0.00 0.00 0.00 0.00 0.00 0.00 0.00
0.00 0.00 0.00 0.00 0.00 0.00 0.00 0.00 0.00 0.00 0.00 0.00 0.00 0.00 0.00 0.00 0.00 0.00 0.00 0.00 0.00 0.00 0.00 0.00 0.00 0.00 0.00 0.00 0.00 0.00 0.00 0.00 0.00 0.00 0.00 0.00 0.00 0.00 0.00 0.00 0.00 0.00 0.00 0.00 0.00 0.00 0.00 0.00 0.00
0.00 0.00 0.00 0.00 0.00 0.00 0.00 0.00 0.00 0.00 0.00 0.00 0.00 0.00 0.00 0.00 0.00 0.00 0.00 0.00 0.00 0.00 0.00 0.00 0.00 0.00 0.00 0.00 0.00 0.00 0.00 0.00 0.00 0.00 0.00 0.00 0.00 0.00 0.00 0.00 0.00 0.00 0.00 0.00 0.00 0.00 0.00 0.00 0.00
0.00 0.00 0.00 0.00 0.00 0.00 0.00 0.00 0.00 0.00 0.00 0.00 0.00 0.00 0.00 0.00 0.00 0.00 0.00 0.00 0.00 0.00 0.00 0.00 0.00 0.00 0.00 0.00 0.00 0.00 0.00 0.00 0.00 0.00 0.00 0.00 0.00 0.00 0.00 0.00 0.00 0.00 0.00 0.00 0.00 0.00 0.00 0.00 0.00
0.00 0.00 0.00 0.00 0.00 0.00 0.00 0.00 0.00 0.00 0.00 0.00 0.00 0.00 0.00 0.00 0.00 0.00 0.00 0.00 0.00 0.00 0.00 0.00 0.00 0.00 0.00 0.00 0.00 0.00 0.00 0.00 0.00 0.00 0.00 0.00 0.00 0.00 0.00 0.00 0.00 0.00 0.00 0.00 0.00 0.00 0.00 0.00 0.00
0.00 0.00 0.00 0.00 0.00 0.00 0.00 0.00 0.00 0.00 0.00 0.00 0.00 0.00 0.00 0.00 0.00 0.00 0.00 0.00 0.00 0.00 0.00 0.00 0.00 0.00 0.00 0.00 0.00 0.00 0.00 0.00 0.00 0.00 0.00 0.00 0.00 0.00 0.00 0.00 0.00 0.00 0.00 0.00 0.00 0.00 0.00 0.00 0.00
0.00 0.00 0.00 0.00 0.00 0.00 0.00 0.00 0.00 0.00 0.00 0.00 0.00 0.00 0.00 0.00 0.00 0.00 0.00 0.00 0.00 0.00 0.00 0.00 0.00 0.00 0.00 0.00 0.00 0.00 0.00 0.00 0.00 0.00 0.00 0.00 0.00 0.00 0.00 0.00 0.00 0.00 0.00 0.00 0.00 0.00 0.00 0.00 0.00
0.00 0.00 0.00 0.00 0.00 0.00 0.00 0.00 0.00 0.00 0.00 0.00 0.00 0.00 0.00 0.00 0.00 0.00 0.00 0.00 0.00 0.00 0.00 0.00 0.00 0.00 0.00 0.00 0.00 0.00 0.00 0.00 0.00 0.00 0.00 0.00 0.00 0.00 0.00 0.00 0.00 0.00 0.00 0.00 0.00 0.00 0.00 0.00 0.00
0.00 0.00 0.00 0.00 0.00 0.00 0.00 0.00 0.00 0.00 0.00 0.00 0.00 0.00 0.00 0.00 0.00 0.00 0.00 0.00 0.00 0.00 0.00 0.00 0.00 0.00 0.00 0.00 0.00 0.00 0.00 0.00 0.00 0.00 0.00 0.00 0.00 0.00 0.00 0.00 0.00 0.00 0.00 0.00 0.00 0.00 0.00 0.00 0.00
0.00 0.00 0.00 0.00 0.00 0.00 0.00 0.00 0.00 0.00 0.00 0.00 0.00 0.00 0.00 0.00 0.00 0.00 0.00 0.00 0.00 0.00 0.00 0.00 0.00 0.00 0.00 0.00 0.00 0.00 0.00 0.00 0.00 0.00 0.00 0.00 0.00 0.00 0.00 0.00 0.00 0.00 0.00 0.00 0.00 0.00 0.00 0.00 0.00
0.00 0.00 0.00 0.00 0.00 0.00 0.00 0.00 0.00 0.00 0.00 0.00 0.00 0.00 0.00 0.00 0.00 0.00 0.00 0.00 0.00 0.00 0.00 0.00 0.00 0.00 0.00 0.00 0.00 0.00 0.00 0.00 0.00 0.00 0.00 0.00 0.00 0.00 0.00 0.00 0.00 0.00 0.00 0.00 0.00 0.00 0.00 0.00 0.00
0.00 0.00 0.00 0.00 0.00 0.00 0.00 0.00 0.00 0.00 0.00 0.00 0.00 0.00 0.00 0.00 0.00 0.00 0.00 0.00 0.00 0.00 0.00 0.00 0.00 0.00 0.00 0.00 0.00 0.00 0.00 0.00 0.00 0.00 0.00 0.00 0.00 0.00 0.00 0.00 0.00 0.00 0.00 0.00 0.00 0.00 0.00 0.00 0.00
0.00 0.00 0.00 0.00 0.00 0.00 0.00 0.00 0.00 0.00 0.00 0.00 0.00 0.00 0.00 0.00 0.00 0.00 0.00 0.00 0.00 0.00 0.00 0.00 0.00 0.00 0.00 0.00 0.00 0.00 0.00 0.00 0.00 0.00 0.00 0.00 0.00 0.00 0.00 0.00 0.00 0.00 0.00 0.00 0.00 0.00 0.00 0.00 0.00
0.00 0.00 0.00 0.00 0.00 0.00 0.00 0.00 0.00 0.00 0.00 0.00 0.00 0.00 0.00 0.00 0.00 0.00 0.00 0.00 0.00 0.00 0.00 0.00 0.00 0.00 0.00 0.00 0.00 0.00 0.00 0.00 0.00 0.00 0.00 0.00 0.00 0.00 0.00 0.00 0.00 0.00 0.00 0.00 0.00 0.00 0.00 0.00 0.00
0.00 0.00 0.00 0.00 0.00 0.00 0.00 0.00 0.00 0.00 0.00 0.00 0.00 0.00 0.00 0.00 0.00 0.00 0.00 0.00 0.00 0.00 0.00 0.00 0.00 0.00 0.00 0.00 0.00 0.00 0.00 0.00 0.00 0.00 0.00 0.00 0.01 0.01 0.01 0.01 0.00 0.00 0.00 0.00 0.00 0.00 0.00 0.00 0.00
0.00 0.00 0.00 0.00 0.00 0.00 0.00 0.00 0.00 0.00 0.00 0.00 0.00 0.00 0.00 0.00 0.00 0.00 0.00 0.00 0.00 0.00 0.00 0.00 0.00 0.00 0.00 0.00 0.00 0.00 0.00 0.00 0.00 0.00 0.00 0.00 0.01 0.02 0.02 0.01 0.01 0.00 0.00 0.00 0.00 0.00 0.00 0.00 0.00
0.00 0.00 0.00 0.00 0.00 0.00 0.00 0.00 0.00 0.00 0.00 0.00 0.00 0.00 0.00 0.00 0.00 0.00 0.00 0.00 0.00 0.00 0.00 0.00 0.00 0.00 0.00 0.00 0.00 0.00 0.00 0.00 0.00 0.00 0.00 0.00 0.00 0.01 0.02 0.02 0.01 0.01 0.01 0.00 0.00 0.00 0.00 0.00 0.00
0.00 0.00 0.00 0.00 0.00 0.00 0.00 0.00 0.00 0.00 0.00 0.00 0.00 0.00 0.00 0.00 0.00 0.00 0.00 0.00 0.00 0.00 0.00 0.00 0.00 0.00 0.00 0.00 0.00 0.00 0.00 0.00 0.00 0.00 0.00 0.00 0.00 0.00 0.00 0.01 0.01 0.00 0.00 0.00 0.00 0.00 0.00 0.00 0.00
0.00 0.00 0.00 0.00 0.00 0.00 0.00 0.00 0.00 0.00 0.00 0.00 0.00 0.00 0.00 0.00 0.00 0.00 0.00 0.00 0.00 0.00 0.00 0.00 0.00 0.00 0.00 0.00 0.00 0.00 0.00 0.00 0.00 0.00 0.00 0.00 0.00 0.00 0.00 0.00 0.00 0.00 0.00 0.00 0.00 0.00 0.00 0.00 0.00
0.00 0.00 0.00 0.00 0.00 0.00 0.00 0.00 0.00 0.00 0.00 0.00 0.00 0.00 0.00 0.00 0.00 0.00 0.00 0.00 0.00 0.00 0.00 0.00 0.00 0.00 0.00 0.00 0.00 0.00 0.00 0.00 0.00 0.00 0.00 0.00 0.00 0.00 0.00 0.00 0.00 0.00 0.00 0.00 0.00 0.00 0.00 0.00 0.00
0.00 0.00 0.00 0.00 0.00 0.00 0.00 0.00 0.00 0.00 0.00 0.00 0.00 0.00 0.00 0.00 0.00 0.00 0.00 0.00 0.00 0.00 0.00 0.00 0.00 0.00 0.00 0.00 0.00 0.00 0.00 0.00 0.00 0.00 0.00 0.00 0.00 0.00 0.00 0.00 0.00 0.00 0.00 0.00 0.00 0.00 0.00 0.00 0.00
0.00 0.00 0.00 0.00 0.00 0.00 0.00 0.00 0.00 0.00 0.00 0.00 0.00 0.00 0.00 0.00 0.00 0.00 0.00 0.00 0.00 0.00 0.00 0.00 0.00 0.00 0.00 0.00 0.00 0.00 0.00 0.00 0.00 0.00 0.00 0.00 0.00 0.00 0.00 0.00 0.00 0.00 0.00 0.00 0.00 0.00 0.00 0.00 0.00
0.00 0.00 0.00 0.00 0.00 0.00 0.00 0.00 0.00 0.00 0.00 0.00 0.00 0.00 0.00 0.00 0.00 0.00 0.00 0.00 0.00 0.00 0.00 0.00 0.00 0.00 0.00 0.00 0.00 0.00 0.00 0.00 0.00 0.00 0.00 0.00 0.00 0.00 0.00 0.00 0.00 0.00 0.00 0.00 0.00 0.00 0.00 0.00 0.00
0.00 0.00 0.00 0.00 0.00 0.00 0.00 0.00 0.00 0.00 0.00 0.00 0.00 0.00 0.00 0.00 0.00 0.00 0.00 0.00 0.00 0.00 0.00 0.00 0.00 0.00 0.00 0.00 0.00 0.00 0.00 0.00 0.00 0.00 0.00 0.00 0.00 0.00 0.00 0.00 0.00 0.00 0.00 0.00 0.00 0.00 0.00 0.00 0.00
0.00 0.00 0.00 0.00 0.00 0.00 0.00 0.00 0.00 0.00 0.00 0.00 0.00 0.00 0.00 0.00 0.00 0.00 0.00 0.00 0.00 0.00 0.00 0.00 0.00 0.00 0.00 0.00 0.00 0.00 0.00 0.00 0.00 0.00 0.00 0.00 0.00 0.00 0.00 0.00 0.00 0.00 0.00 0.00 0.00 0.00 0.00 0.00 0.00
MSLP
1012.98 1012.88 1013.30 1013.83 1015.65 1016.77 1017.00 1016.68 1016.08 1015.92 1015.94 1015.72 1015.80 1016.13 1016.72 1017.19 1017.67 1018.59 1017.86 1018.10 1018.16 1018.85 1019.22 1019.44 1019.59 1019.60 1019.78 1020.06 1020.21 1020.24 1020.28 1020.52 1020.46 1020.27 1020.50 1020.64 1020.76 1020.90 1021.08 1021.14 1021.24 1021.22 1021.18 1021.29 1021.28 1021.38 1021.44 1021.60 1021.70
1013.00 1013.11 1013.85 1015.18 1016.52 1017.41 1017.32 1016.57 1016.25 1015.71 1015.75 1015.92 1016.00 1016.34 1016.74 1017.43 1017.54 1018.03 1018.27 1018.18 1018.29 1018.78 1019.21 1019.62 1019.77 1019.93 1020.16 1020.40 1020.60 1020.67 1020.69 1020.91 1020.89 1020.74 1020.83 1021.00 1021.16 1021.32 1021.45 1021.56 1021.66 1021.66 1021.52 1021.62 1021.73 1021.78 1021.97 1022.12 1022.13
1012.95 1013.49 1014.84 1016.06 1017.10 1017.31 1016.90 1016.26 1015.99 1015.82 1015.74 1015.81 1016.21 1016.39 1016.77 1017.29 1017.60 1017.63 1017.52 1017.85 1018.37 1018.93 1019.32 1019.68 1019.93 1020.16 1020.36 1020.55 1020.75 1020.86 1020.88 1021.16 1021.18 1021.23 1021.29 1021.38 1021.53 1021.71 1021.91 1021.90 1022.00 1022.02 1022.05 1022.13 1022.25 1022.26 1022.41 1022.53 1022.58
1013.46 1014.32 1016.05 1016.37 1016.72 1016.33 1016.23 1015.86 1016.05 1016.02 1015.94 1015.87 1016.39 1017.02 1016.90 1016.74 1017.04 1017.21 1017.47 1017.85 1018.53 1019.03 1019.36 1019.73 1019.98 1020.18 1020.52 1020.64 1020.88 1021.05 1021.24 1021.47 1021.46 1021.60 1021.64 1021.78 1021.98 1022.15 1022.42 1022.46 1022.48 1022.43 1022.45 1022.65 1022.74 1022.64 1022.88 1022.98 1023.01
1014.29 1015.20 1016.34 1016.64 1016.43 1016.02 1015.88 1015.79 1016.24 1016.10 1016.09 1016.16 1016.30 1017.24 1017.35 1017.05 1016.86 1017.26 1017.61 1017.97 1018.61 1019.08 1019.42 1019.80 1019.97 1020.22 1020.56 1020.78 1020.96 1021.20 1021.46 1021.70 1021.75 1021.79 1021.89 1022.03 1022.38 1022.67 1022.83 1022.91 1023.00 1023.03 1022.98 1023.28 1023.21 1023.12 1023.29 1023.50 1023.55
1015.19 1015.79 1016.79 1016.80 1016.44 1015.97 1015.71 1015.86 1016.20 1016.19 1016.35 1016.36 1016.76 1017.36 1017.69 1017.37 1017.32 1017.56 1017.84 1018.16 1018.50 1019.06 1019.50 1019.90 1020.10 1020.36 1020.61 1020.87 1021.08 1021.26 1021.56 1021.75 1021.93 1021.98 1022.11 1022.41 1022.76 1022.97 1023.02 1023.17 1023.36 1023.44 1023.45 1023.51 1023.48 1023.67 1023.86 1023.98 1024.15
1015.08 1016.10 1016.73 1016.55 1016.37 1016.03 1015.68 1015.77 1016.28 1016.21 1016.19 1016.50 1016.78 1017.86 1017.88 1017.78 1017.58 1017.60 1017.91 1018.28 1018.57 1019.04 1019.46 1019.92 1020.25 1020.49 1020.70 1021.03 1021.28 1021.31 1021.67 1021.99 1022.03 1022.28 1022.46 1022.74 1023.05 1023.28 1023.26 1023.47 1023.55 1023.78 1023.72 1023.81 1023.84 1024.03 1024.39 1024.44 1024.62
1014.98 1015.82 1016.62 1016.23 1016.14 1015.72 1015.50 1015.71 1015.58 1015.91 1016.18 1016.30 1016.51 1017.24 1017.73 1017.37 1017.77 1017.99 1018.22 1018.50 1018.80 1019.07 1019.40 1019.84 1020.22 1020.49 1020.83 1021.09 1021.25 1021.40 1021.90 1022.21 1022.35 1022.60 1022.83 1023.13 1023.49 1023.70 1023.67 1023.80 1023.85 1024.00 1024.13 1024.25 1024.42 1024.60 1024.83 1024.95 1025.06
1014.77 1015.79 1016.48 1016.03 1015.88 1015.35 1015.41 1015.59 1015.62 1015.69 1015.96 1016.19 1016.47 1016.72 1016.64 1016.79 1017.83 1018.51 1018.78 1019.02 1019.14 1019.27 1019.45 1019.80 1020.17 1020.48 1020.78 1021.15 1021.43 1021.67 1021.99 1022.30 1022.60 1022.84 1023.12 1023.40 1023.89 1023.96 1024.06 1024.04 1024.11 1024.29 1024.50 1024.63 1024.84 1025.00 1025.22 1025.44 1025.56
1015.01 1015.90 1015.88 1015.35 1015.13 1015.14 1015.22 1015.53 1015.64 1015.88 1016.09 1016.35 1016.41 1016.68 1016.78 1017.09 1017.87 1018.42 1018.83 1019.00 1018.99 1019.14 1019.41 1019.56 1020.02 1020.36 1020.83 1021.16 1021.64 1021.92 1022.22 1022.50 1022.79 1023.06 1023.44 1023.70 1023.99 1024.03 1024.22 1024.22 1024.39 1024.68 1024.90 1025.01 1025.15 1025.36 1025.65 1025.78 1026.00
1015.14 1015.36 1015.38 1015.20 1014.88 1015.10 1015.18 1015.61 1015.63 1015.90 1016.36 1016.09 1016.30 1016.70 1017.21 1017.52 1018.09 1018.35 1018.55 1018.63 1018.79 1018.98 1019.23 1019.50 1019.77 1020.14 1020.56 1021.04 1021.57 1021.96 1022.25 1022.57 1022.90 1023.27 1023.59 1023.81 1024.11 1024.30 1024.47 1024.51 1024.76 1025.00 1025.14 1025.37 1025.58 1025.85 1026.03 1026.19 1026.39
1015.08 1015.05 1015.17 1015.09 1015.08 1014.98 1015.48 1015.62 1015.83 1016.12 1015.63 1015.59 1015.76 1016.42 1017.20 1017.68 1017.78 1017.89 1018.15 1018.41 1018.76 1019.01 1019.09 1019.19 1019.49 1019.96 1020.32 1020.76 1021.26 1021.65 1022.13 1022.60 1022.97 1023.25 1023.46 1023.79 1024.16 1024.45 1024.63 1024.79 1025.03 1025.21 1025.45 1025.73 1025.90 1026.06 1026.25 1026.46 1026.67
1014.94 1015.08 1015.27 1015.30 1015.40 1015.32 1015.60 1015.84 1016.07 1016.04 1015.75 1015.94 1016.07 1016.78 1017.37 1017.58 1017.60 1017.56 1017.77 1018.32 1018.64 1018.96 1019.05 1019.15 1019.33 1019.68 1019.97 1020.46 1020.87 1021.25 1021.70 1022.29 1022.69 1023.09 1023.36 1023.57 1024.02 1024.40 1024.67 1024.94 1025.23 1025.46 1025.65 1025.77 1026.05 1026.23 1026.45 1026.65 1026.83
1015.13 1015.17 1015.46 1015.65 1015.68 1015.87 1015.99 1016.28 1016.13 1015.94 1015.71 1016.37 1016.81 1016.91 1017.40 1017.67 1017.37 1017.80 1018.02 1018.06 1018.16 1018.35 1018.57 1018.89 1019.17 1019.37 1019.75 1020.13 1020.49 1020.85 1021.31 1021.82 1022.46 1022.81 1023.03 1023.47 1023.86 1024.28 1024.67 1025.03 1025.35 1025.63 1025.80 1026.02 1026.15 1026.36 1026.62 1026.88 1027.01
1015.57 1015.88 1015.75 1016.04 1015.95 1016.20 1016.17 1016.57 1016.32 1015.84 1016.13 1016.50 1017.16 1017.36 1017.58 1017.54 1017.95 1017.69 1017.16 1017.41 1017.57 1017.64 1018.10 1018.53 1018.93 1019.23 1019.48 1019.81 1020.29 1020.58 1020.88 1021.28 1021.77 1022.26 1022.55 1023.05 1023.52 1023.96 1024.29 1024.78 1025.08 1025.43 1025.79 1026.12 1026.56 1026.79 1026.99 1027.37 1027.50
1016.31 1016.60 1016.69 1016.22 1016.32 1016.50 1016.56 1016.57 1016.15 1016.05 1016.18 1016.72 1017.16 1017.66 1017.59 1017.42 1017.32 1017.50 1017.43 1017.29 1017.36 1017.61 1017.75 1018.06 1018.49 1018.93 1019.12 1019.39 1019.82 1020.20 1020.46 1020.86 1021.27 1021.79 1022.21 1022.64 1022.98 1023.42 1023.99 1024.45 1024.72 1025.05 1025.50 1025.92 1026.41 1026.76 1027.13 1027.22 1027.39
1017.48 1017.29 1017.04 1016.68 1016.51 1016.73 1016.88 1016.84 1016.25 1016.24 1016.50 1016.93 1017.16 1017.45 1017.40 1017.04 1016.70 1016.70 1016.68 1016.85 1016.98 1016.99 1017.28 1017.60 1017.98 1018.34 1018.71 1018.94 1019.34 1019.78 1020.07 1020.43 1020.79 1021.27 1021.73 1022.11 1022.46 1022.91 1023.40 1023.83 1024.17 1024.67 1025.21 1025.75 1026.19 1026.80 1027.00 1027.41 1027.76
1017.55 1017.50 1017.22 1017.04 1016.82 1016.91 1017.23 1017.04 1016.90 1016.59 1016.75 1016.97 1017.10 1017.10 1017.16 1016.86 1015.70 1015.48 1015.64 1016.00 1016.33 1016.52 1016.73 1017.12 1017.36 1017.64 1018.11 1018.53 1019.06 1019.52 1019.93 1020.05 1020.28 1020.56 1020.96 1021.47 1021.87 1022.29 1022.83 1023.29 1023.76 1024.30 1024.91 1025.50 1025.95 1026.48 1027.16 1027.68 1028.13
1017.00 1017.22 1017.32 1017.28 1016.92 1017.46 1017.48 1017.68 1017.25 1016.78 1016.80 1016.91 1016.78 1016.66 1016.53 1016.16 1014.96 1014.99 1015.05 1015.37 1015.80 1016.20 1016.54 1016.54 1016.97 1016.89 1017.60 1018.32 1018.88 1019.21 1019.25 1019.53 1019.73 1019.83 1020.16 1020.65 1021.04 1021.57 1022.17 1022.58 1023.12 1023.81 1024.41 1024.62 1025.35 1026.34 1027.13 1028.02 1028.20
1016.97 1017.31 1017.55 1017.77 1017.39 1017.80 1018.10 1017.86 1017.49 1017.14 1016.36 1016.14 1016.24 1015.99 1016.04 1015.91 1015.02 1014.92 1015.00 1015.16 1015.45 1015.44 1015.61 1015.86 1015.92 1016.24 1016.60 1017.14 1017.52 1018.10 1018.52 1018.75 1018.71 1019.09 1019.37 1019.69 1020.16 1020.57 1021.16 1021.64 1022.19 1022.85 1023.70 1024.34 1025.10 1025.57 1026.45 1027.20 1027.76
1017.31 1017.53 1017.85 1018.22 1018.25 1018.40 1019.04 1018.42 1017.86 1016.66 1016.24 1015.58 1015.59 1015.88 1015.94 1015.71 1015.15 1014.85 1014.87 1015.06 1015.13 1015.28 1015.01 1015.02 1015.01 1015.29 1015.72 1016.20 1017.08 1017.85 1018.36 1019.04 1019.00 1018.85 1018.92 1018.94 1019.37 1019.80 1020.32 1020.76 1021.30 1021.99 1022.47 1023.19 1023.68 1024.28 1025.16 1025.77 1026.76
1017.54 1017.47 1018.10 1018.58 1019.27 1019.62 1020.05 1019.89 1018.49 1017.29 1016.45 1016.07 1015.75 1015.81 1015.86 1015.73 1015.32 1015.20 1015.01 1015.06 1015.28 1015.17 1015.17 1015.08 1015.10 1015.32 1015.46 1015.81 1016.40 1016.75 1017.08 1017.56 1017.57 1017.79 1018.34 1018.51 1018.66 1018.88 1019.21 1019.73 1020.20 1020.79 1021.33 1021.95 1022.55 1023.11 1023.65 1024.93 1025.14
1017.51 1017.79 1018.78 1019.33 1020.09 1020.65 1021.00 1020.81 1018.51 1017.78 1016.98 1016.52 1016.36 1016.52 1016.41 1016.09 1015.74 1015.51 1015.49 1015.44 1015.42 1015.21 1015.20 1015.26 1015.26 1015.21 1015.39 1015.67 1015.96 1016.36 1016.66 1016.62 1017.21 1017.67 1018.05 1018.36 1018.49 1018.43 1018.49 1018.77 1019.27 1019.86 1020.43 1020.89 1021.56 1022.38 1023.21 1023.62 1023.80
1017.63 1018.50 1019.82 1020.78 1021.25 1021.80 1021.29 1020.90 1019.28 1018.03 1017.25 1016.89 1016.85 1016.86 1016.73 1016.50 1016.19 1015.99 1015.66 1015.64 1015.63 1015.42 1015.36 1015.33 1015.31 1015.39 1015.44 1015.51 1015.75 1016.09 1016.38 1016.78 1017.29 1017.64 1017.91 1018.12 1018.23 1018.33 1018.41 1018.34 1018.51 1019.00 1019.43 1019.90 1020.38 1020.88 1021.55 1021.96 1022.32
1017.99 1019.30 1021.01 1022.21 1022.64 1022.74 1021.92 1021.40 1019.09 1017.66 1017.40 1017.24 1017.39 1017.25 1017.22 1017.14 1016.96 1016.84 1016.70 1016.37 1016.07 1015.92 1015.72 1015.69 1015.64 1015.78 1015.87 1015.87 1015.86 1016.02 1016.28 1016.60 1016.89 1017.22 1017.56 1017.95 1018.20 1018.21 1018.16 1018.28 1018.43 1018.43 1018.49 1018.72 1019.13 1019.73 1020.20 1020.63 1021.16
1018.28 1019.02 1020.40 1021.92 1023.21 1023.03 1022.24 1020.78 1018.28 1017.53 1017.43 1017.60 1017.57 1017.70 1017.77 1017.59 1017.73 1017.67 1017.56 1017.50 1017.12 1016.90 1016.51 1016.34 1016.23 1016.00 1016.04 1016.17 1016.17 1016.12 1016.20 1016.51 1016.77 1016.96 1017.18 1017.33 1017.38 1017.47 1017.59 1017.67 1017.68 1017.90 1018.08 1018.28 1018.52 1018.96 1019.32 1019.54 1019.77
1018.50 1019.17 1019.81 1021.65 1023.94 1023.48 1021.64 1020.25 1017.95 1017.83 1018.45 1018.39 1018.24 1018.08 1018.23 1018.25 1017.90 1017.73 1017.55 1017.64 1017.60 1017.26 1016.89 1016.80 1016.62 1016.58 1016.53 1016.41 1016.25 1016.13 1016.23 1016.32 1016.42 1016.57 1016.64 1016.63 1016.60 1016.70 1016.99 1017.22 1017.39 1017.38 1017.52 1017.71 1018.03 1018.30 1018.49 1018.78 1018.95
1017.45 1018.23 1019.75 1021.49 1023.13 1023.26 1021.59 1020.46 1018.94 1019.09 1019.29 1019.03 1018.78 1018.99 1018.68 1018.43 1018.11 1018.08 1017.76 1017.74 1017.85 1017.68 1017.40 1017.02 1017.02 1017.05 1016.97 1016.73 1016.64 1016.34 1016.07 1015.96 1015.94 1016.06 1016.07 1016.14 1016.27 1016.44 1016.63 1016.80 1016.86 1017.01 1017.32 1017.47 1017.64 1017.61 1017.75 1017.93 1018.02
1018.06 1018.32 1019.43 1020.51 1021.53 1021.96 1021.60 1020.05 1018.60 1018.95 1019.14 1019.33 1019.12 1019.10 1018.84 1018.70 1018.56 1018.54 1018.37 1018.31 1018.22 1017.99 1017.72 1017.45 1017.24 1017.17 1017.02 1016.76 1016.82 1016.47 1016.29 1016.11 1015.90 1015.81 1015.80 1015.90 1015.99 1016.12 1016.16 1016.29 1016.38 1016.45 1016.64 1017.02 1017.17 1017.14 1017.13 1017.01 1017.07
1017.27 1017.63 1018.50 1019.72 1021.29 1021.55 1021.04 1019.59 1018.63 1018.72 1018.82 1019.03 1019.22 1019.08 1019.07 1019.00 1019.18 1019.08 1019.02 1019.12 1019.06 1018.80 1018.47 1018.24 1018.05 1017.82 1017.60 1017.11 1016.71 1016.51 1016.26 1016.17 1016.10 1016.02 1015.82 1015.87 1015.73 1015.85 1015.90 1015.89 1015.95 1016.07 1016.22 1016.48 1016.51 1016.42 1016.36 1016.32 1016.49
Thickness
5736 5738 5735 5725 5690 5676 5671 5681 5696 5694 5694 5703 5705 5699 5693 5692 5687 5669 5695 5694 5693 5687 5683 5681 5681 5680 5679 5679 5680 5681 5682 5681 5684 5688 5687 5687 5688 5688 5688 5688 5687 5688 5688 5686 5686 5684 5683 5682 5681
5738 5737 5727 5700 5674 5662 5665 5688 5688 5698 5701 5698 5702 5700 5697 5689 5697 5692 5692 5695 5693 5689 5685 5681 5680 5678 5677 5676 5676 5679 5679 5679 5682 5684 5684 5684 5685 5684 5684 5684 5683 5682 5683 5682 5681 5679 5678 5676 5676
5736 5733 5711 5684 5664 5665 5671 5695 5695 5703 5703 5706 5702 5704 5700 5696 5698 5699 5704 5700 5695 5690 5687 5683 5680 5678 5678 5678 5677 5678 5679 5679 5681 5681 5681 5682 5682 5681 5679 5681 5680 5679 5678 5677 5675 5675 5672 5671 5671
5728 5721 5701 5680 5685 5695 5696 5700 5698 5701 5709 5713 5703 5695 5707 5713 5706 5709 5708 5703 5697 5693 5690 5686 5683 5680 5678 5679 5677 5678 5678 5677 5679 5678 5679 5679 5678 5677 5675 5675 5675 5675 5674 5672 5670 5672 5668 5667 5666
5721 5708 5681 5680 5689 5700 5701 5701 5695 5705 5706 5709 5711 5695 5700 5712 5717 5714 5710 5705 5699 5696 5692 5688 5686 5683 5681 5680 5680 5679 5678 5677 5678 5678 5678 5677 5675 5673 5672 5671 5670 5670 5670 5667 5666 5666 5664 5661 5661
5704 5700 5673 5673 5687 5700 5707 5704 5703 5706 5706 5709 5703 5699 5700 5713 5714 5714 5712 5708 5703 5699 5694 5690 5688 5686 5684 5682 5681 5680 5678 5678 5677 5678 5677 5674 5672 5670 5671 5670 5668 5666 5666 5664 5663 5660 5658 5657 5655
5702 5688 5678 5685 5688 5697 5707 5706 5701 5703 5707 5709 5709 5696 5702 5709 5715 5716 5713 5710 5706 5701 5697 5692 5688 5687 5685 5683 5682 5682 5679 5677 5678 5675 5674 5672 5669 5667 5668 5667 5666 5663 5663 5661 5660 5657 5652 5652 5650
5702 5695 5685 5692 5686 5697 5709 5708 5712 5710 5706 5716 5716 5699 5700 5713 5714 5714 5713 5710 5707 5703 5700 5696 5692 5689 5686 5684 5683 5682 5678 5676 5675 5673 5671 5669 5665 5663 5665 5663 5662 5659 5658 5656 5654 5651 5649 5647 5645
5711 5682 5676 5693 5690 5705 5708 5709 5713 5717 5711 5717 5718 5715 5723 5723 5715 5709 5708 5707 5705 5704 5702 5698 5694 5692 5689 5686 5683 5681 5679 5676 5674 5672 5671 5668 5664 5664 5662 5662 5660 5657 5654 5652 5650 5647 5644 5642 5640
5696 5680 5688 5706 5708 5706 5710 5710 5709 5712 5711 5712 5718 5721 5722 5721 5715 5710 5707 5706 5707 5705 5703 5700 5697 5694 5690 5686 5683 5681 5678 5676 5673 5672 5668 5667 5663 5663 5660 5660 5657 5652 5650 5648 5646 5643 5641 5639 5636
5696 5689 5699 5708 5713 5711 5712 5710 5713 5704 5704 5712 5713 5719 5717 5717 5712 5712 5710 5710 5708 5708 5706 5703 5700 5696 5692 5688 5684 5681 5678 5676 5673 5669 5668 5666 5663 5661 5659 5658 5653 5649 5647 5644 5642 5639 5636 5634 5631
5695 5703 5703 5707 5711 5714 5707 5712 5711 5707 5717 5726 5724 5721 5716 5716 5717 5716 5714 5712 5709 5707 5707 5707 5703 5699 5695 5691 5687 5683 5679 5676 5673 5670 5668 5666 5663 5659 5657 5654 5650 5647 5644 5641 5638 5635 5632 5629 5626
5696 5700 5701 5705 5706 5709 5710 5708 5706 5707 5716 5721 5721 5718 5714 5715 5718 5720 5719 5714 5710 5707 5707 5707 5704 5701 5698 5694 5690 5686 5682 5678 5674 5670 5668 5665 5662 5658 5654 5651 5647 5643 5641 5639 5636 5632 5628 5625 5622
5695 5698 5697 5698 5701 5702 5702 5702 5708 5714 5719 5716 5714 5715 5713 5713 5717 5714 5714 5714 5713 5713 5711 5708 5706 5703 5699 5696 5692 5688 5684 5680 5675 5671 5668 5664 5660 5656 5652 5648 5644 5640 5636 5633 5631 5628 5624 5621 5618
5689 5686 5692 5690 5696 5695 5700 5695 5694 5712 5712 5714 5709 5708 5709 5712 5709 5711 5720 5719 5719 5718 5714 5710 5706 5701 5699 5696 5692 5689 5686 5682 5678 5674 5670 5665 5660 5655 5650 5645 5641 5637 5632 5628 5623 5620 5617 5613 5610
5674 5669 5667 5687 5686 5690 5692 5680 5702 5707 5711 5711 5709 5703 5706 5711 5712 5711 5713 5717 5718 5716 5715 5713 5709 5704 5701 5697 5694 5690 5686 5682 5678 5674 5670 5665 5660 5655 5649 5643 5639 5635 5629 5624 5619 5615 5611 5608 5605
5653 5654 5662 5673 5679 5683 5685 5684 5698 5703 5703 5705 5707 5705 5707 5710 5714 5714 5717 5716 5717 5717 5716 5713 5710 5706 5703 5700 5696 5691 5687 5683 5679 5674 5670 5665 5660 5655 5650 5644 5639 5633 5627 5620 5615 5609 5605 5601 5596
5649 5653 5659 5665 5677 5678 5675 5675 5683 5693 5700 5698 5700 5702 5705 5708 5720 5725 5723 5721 5719 5718 5717 5713 5712 5709 5705 5700 5695 5690 5686 5683 5679 5676 5671 5666 5661 5656 5650 5644 5638 5631 5624 5617 5612 5606 5599 5593 5588
5650 5657 5660 5665 5672 5670 5668 5666 5676 5685 5691 5691 5698 5700 5704 5710 5722 5724 5723 5719 5719 5717 5714 5714 5710 5710 5705 5698 5693 5689 5688 5685 5682 5678 5673 5668 5663 5656 5650 5645 5638 5630 5623 5620 5611 5602 5593 5584 5580
5657 5654 5653 5657 5664 5664 5661 5665 5672 5678 5691 5697 5700 5703 5702 5706 5714 5718 5719 5718 5716 5720 5718 5717 5715 5711 5708 5704 5700 5696 5691 5688 5684 5679 5674 5669 5664 5659 5653 5647 5641 5632 5623 5616 5607 5601 5592 5584 5577
5645 5641 5643 5647 5649 5651 5646 5654 5662 5682 5685 5696 5697 5696 5698 5702 5709 5712 5715 5715 5713 5711 5715 5718 5718 5715 5711 5707 5699 5690 5686 5680 5677 5675 5673 5670 5664 5658 5653 5646 5640 5632 5625 5618 5612 5605 5595 5587 5577
5634 5644 5644 5643 5635 5628 5636 5625 5651 5668 5673 5682 5686 5688 5693 5696 5702 5705 5707 5709 5708 5708 5709 5710 5711 5709 5708 5704 5699 5695 5692 5687 5684 5680 5673 5668 5663 5659 5654 5647 5641 5634 5627 5620 5612 5605 5598 5585 5580
5633 5638 5636 5633 5620 5623 5624 5615 5643 5654 5665 5678 5674 5676 5680 5687 5692 5695 5697 5699 5700 5700 5701 5701 5702 5703 5700 5698 5696 5691 5688 5686 5679 5672 5667 5662 5658 5655 5652 5646 5640 5633 5626 5619 5611 5600 5591 5585 5581
5625 5623 5611 5603 5604 5601 5613 5616 5625 5645 5663 5667 5666 5667 5670 5675 5680 5684 5688 5690 5690 5690 5691 5693 5694 5693 5692 5691 5688 5685 5682 5677 5669 5664 5661 5655 5652 5649 5645 5642 5637 5630 5624 5618 5610 5603 5594 5588 5582
5618 5608 5588 5587 5576 5590 5600 5602 5622 5642 5652 5656 5656 5659 5660 5662 5665 5668 5671 5673 5677 5679 5680 5681 5682 5682 5680 5680 5678 5675 5672 5667 5663 5658 5654 5647 5642 5640 5638 5632 5629 5626 5622 5616 5610 5603 5596 5588 5580
5604 5605 5583 5575 5567 5590 5593 5601 5625 5637 5637 5639 5645 5647 5648 5651 5650 5652 5654 5654 5659 5662 5665 5666 5667 5669 5668 5665 5664 5663 5660 5657 5653 5649 5645 5643 5640 5637 5631 5627 5624 5619 5614 5608 5603 5598 5592 5586 5580
5597 5591 5598 5571 5491 5547 5590 5607 5631 5623 5617 5622 5629 5633 5632 5636 5640 5646 5647 5645 5645 5648 5651 5650 5651 5652 5652 5651 5650 5650 5647 5646 5643 5640 5638 5637 5634 5631 5625 5620 5616 5611 5607 5601 5595 5591 5586 5579 5575
5599 5596 5577 5557 5555 5550 5581 5594 5606 5602 5604 5608 5608 5612 5620 5625 5629 5631 5634 5633 5632 5633 5635 5638 5637 5636 5635 5636 5636 5636 5637 5636 5635 5632 5630 5628 5624 5619 5615 5611 5608 5603 5597 5591 5586 5584 5579 5573 5569
5579 5580 5575 5575 5564 5560 5546 5582 5600 5598 5598 5597 5600 5603 5608 5612 5614 5614 5616 5617 5617 5619 5622 5623 5624 5623 5623 5624 5621 5621 5621 5621 5622 5621 5618 5615 5612 5608 5605 5601 5597 5594 5588 5581 5576 5573 5569 5566 5562
5580 5578 5574 5562 5557 5539 5556 5574 5593 5590 5588 5588 5595 5598 5596 5597 5596 5599 5599 5598 5596 5599 5602 5603 5604 5604 5605 5607 5609 5608 5607 5606 5605 5604 5603 5601 5600 5596 5593 5589 5586 5582 5579 5571 5567 5564 5561 5558 5553